TimeCDT,TemperatureF,Dew PointF,Humidity,Sea Level PressureIn,VisibilityMPH,Wind Direction,Wind SpeedMPH,Gust SpeedMPH,PrecipitationIn,Events,Conditions,WindDirDegrees,DateUTC
12:15 AM,57.2,46.4,67,29.88,10.0,NNW,6.9,-,N/A,,Clear,340,2012-10-02 05:15:00
12:35 AM,56.7,46.9,70,29.88,10.0,NNW,5.8,-,N/A,,Clear,340,2012-10-02 05:35:00
12:55 AM,57.2,47.3,69,29.88,10.0,North,5.8,-,N/A,,Clear,350,2012-10-02 05:55:00
1:15 AM,55.8,47.3,73,29.89,10.0,NNW,5.8,-,N/A,,Clear,340,2012-10-02 06:15:00
1:55 AM,53.8,46.4,76,29.90,10.0,NNW,5.8,-,N/A,,Clear,330,2012-10-02 06:55:00
2:15 AM,52.9,46.4,79,29.89,10.0,NNW,5.8,-,N/A,,Clear,340,2012-10-02 07:15:00
2:35 AM,52.7,45.9,78,29.89,10.0,NNW,8.1,-,N/A,,Clear,330,2012-10-02 07:35:00
2:55 AM,51.8,45.1,78,29.89,10.0,NNW,6.9,-,N/A,,Clear,330,2012-10-02 07:55:00
3:15 AM,51.8,45.1,78,29.89,10.0,North,4.6,-,N/A,,Clear,350,2012-10-02 08:15:00
3:35 AM,50.7,45.0,81,29.89,10.0,NNW,8.1,-,N/A,,Clear,330,2012-10-02 08:35:00
3:55 AM,51.1,45.3,81,29.89,10.0,NNW,5.8,-,N/A,,Clear,340,2012-10-02 08:55:00
4:15 AM,50.9,44.8,80,29.89,10.0,NNW,5.8,-,N/A,,Clear,340,2012-10-02 09:15:00
4:35 AM,50.0,44.1,80,29.90,10.0,NNW,8.1,-,N/A,,Clear,340,2012-10-02 09:35:00
4:55 AM,50.0,44.1,80,29.90,10.0,NNW,8.1,-,N/A,,Clear,330,2012-10-02 09:55:00
5:35 AM,50.0,43.5,78,29.90,10.0,North,4.6,-,N/A,,Clear,350,2012-10-02 10:35:00
5:55 AM,49.3,43.3,80,29.91,10.0,NNW,6.9,-,N/A,,Clear,340,2012-10-02 10:55:00
6:15 AM,49.1,42.8,79,29.91,10.0,North,6.9,-,N/A,,Clear,350,2012-10-02 11:15:00
6:35 AM,48.6,43.0,81,29.91,10.0,North,6.9,-,N/A,,Clear,350,2012-10-02 11:35:00
6:55 AM,48.4,42.8,81,29.92,10.0,North,4.6,-,N/A,,Clear,350,2012-10-02 11:55:00
7:15 AM,48.7,43.0,80,29.92,10.0,North,5.8,-,N/A,,Clear,350,2012-10-02 12:15:00
7:35 AM,48.4,43.2,82,29.93,10.0,North,4.6,-,N/A,,Clear,360,2012-10-02 12:35:00
7:55 AM,49.5,43.7,81,29.94,10.0,North,3.5,-,N/A,,Clear,360,2012-10-02 12:55:00
8:15 AM,50.9,44.2,78,29.94,10.0,North,3.5,-,N/A,,Clear,350,2012-10-02 13:15:00
8:35 AM,52.5,45.1,76,29.94,7.0,North,3.5,-,N/A,,Clear,360,2012-10-02 13:35:00
8:55 AM,54.7,45.9,72,29.94,10.0,North,5.8,-,N/A,,Clear,360,2012-10-02 13:55:00
9:15 AM,56.7,46.9,70,29.94,10.0,North,4.6,-,N/A,,Clear,10,2012-10-02 14:15:00
9:35 AM,58.6,48.0,68,29.94,10.0,North,4.6,-,N/A,,Clear,10,2012-10-02 14:35:00
9:55 AM,60.1,48.6,66,29.95,10.0,NE,4.6,-,N/A,,Clear,40,2012-10-02 14:55:00
10:15 AM,61.7,48.6,62,29.94,10.0,NE,3.5,-,N/A,,Clear,50,2012-10-02 15:15:00
10:35 AM,63.3,49.3,60,29.94,10.0,NE,3.5,-,N/A,,Clear,50,2012-10-02 15:35:00
10:55 AM,65.1,49.8,58,29.94,10.0,NNW,4.6,-,N/A,,Clear,330,2012-10-02 15:55:00
11:15 AM,66.4,49.5,54,29.93,10.0,NNW,5.8,-,N/A,,Clear,340,2012-10-02 16:15:00
11:35 AM,67.3,49.3,52,29.93,10.0,NNW,3.5,-,N/A,,Clear,340,2012-10-02 16:35:00
11:55 AM,68.5,48.7,49,29.93,10.0,East,4.6,-,N/A,,Clear,80,2012-10-02 16:55:00
12:15 PM,69.8,49.1,48,29.93,10.0,North,3.5,-,N/A,,Clear,350,2012-10-02 17:15:00
12:35 PM,70.7,49.1,46,29.92,10.0,East,4.6,-,N/A,,Clear,90,2012-10-02 17:35:00
12:55 PM,71.8,49.1,45,29.91,10.0,Calm,Calm,-,N/A,,Clear,0,2012-10-02 17:55:00
1:15 PM,72.1,48.0,42,29.91,10.0,NW,3.5,-,N/A,,Clear,310,2012-10-02 18:15:00
1:35 PM,73.4,48.7,42,29.90,10.0,Calm,Calm,-,N/A,,Clear,0,2012-10-02 18:35:00
1:55 PM,73.9,48.2,40,29.89,10.0,Calm,Calm,-,N/A,,Clear,0,2012-10-02 18:55:00
2:15 PM,74.3,46.9,38,29.89,10.0,NNW,4.6,-,N/A,,Clear,340,2012-10-02 19:15:00
2:35 PM,74.5,46.0,36,29.88,10.0,Calm,Calm,-,N/A,,Clear,0,2012-10-02 19:35:00
2:55 PM,75.9,47.7,37,29.87,10.0,WSW,5.8,-,N/A,,Clear,240,2012-10-02 19:55:00
3:15 PM,76.1,47.8,37,29.87,10.0,SSW,4.6,-,N/A,,Clear,210,2012-10-02 20:15:00
3:35 PM,76.1,47.1,36,29.86,10.0,Calm,Calm,-,N/A,,Clear,0,2012-10-02 20:35:00
3:55 PM,75.6,47.5,37,29.86,10.0,WSW,3.5,-,N/A,,Clear,240,2012-10-02 20:55:00
4:15 PM,76.3,47.7,36,29.86,10.0,West,5.8,-,N/A,,Clear,260,2012-10-02 21:15:00
4:35 PM,76.3,48.0,37,29.86,10.0,West,5.8,-,N/A,,Clear,260,2012-10-02 21:35:00
5:15 PM,75.6,47.7,37,29.86,10.0,WSW,3.5,-,N/A,,Clear,250,2012-10-02 22:15:00
5:35 PM,74.8,47.5,38,29.86,10.0,WSW,3.5,-,N/A,,Clear,240,2012-10-02 22:35:00
5:55 PM,74.3,48.0,39,29.86,10.0,Calm,Calm,-,N/A,,Clear,0,2012-10-02 22:55:00
6:15 PM,73.0,48.0,41,29.87,10.0,Calm,Calm,-,N/A,,Clear,0,2012-10-02 23:15:00
6:35 PM,70.5,47.8,44,29.87,10.0,WSW,3.5,-,N/A,,Clear,250,2012-10-02 23:35:00
7:15 PM,65.7,48.6,54,29.87,10.0,Calm,Calm,-,N/A,,Clear,0,2012-10-03 00:15:00
7:35 PM,63.5,49.1,59,29.88,10.0,Calm,Calm,-,N/A,,Clear,0,2012-10-03 00:35:00
7:55 PM,62.8,49.3,61,29.88,10.0,Calm,Calm,-,N/A,,Clear,0,2012-10-03 00:55:00
8:15 PM,62.8,48.7,60,29.89,10.0,Calm,Calm,-,N/A,,Clear,0,2012-10-03 01:15:00
8:35 PM,61.7,49.1,63,29.89,10.0,Calm,Calm,-,N/A,,Clear,0,2012-10-03 01:35:00
8:55 PM,59.5,47.7,65,29.89,10.0,Calm,Calm,-,N/A,,Clear,0,2012-10-03 01:55:00
9:15 PM,58.5,48.2,69,29.90,10.0,Calm,Calm,-,N/A,,Clear,0,2012-10-03 02:15:00
9:35 PM,59.9,48.4,66,29.90,10.0,Calm,Calm,-,N/A,,Clear,0,2012-10-03 02:35:00
9:55 PM,59.5,48.6,67,29.90,10.0,Calm,Calm,-,N/A,,Clear,0,2012-10-03 02:55:00
10:15 PM,56.8,47.7,71,29.90,10.0,Calm,Calm,-,N/A,,Clear,0,2012-10-03 03:15:00
10:35 PM,58.1,49.1,72,29.91,10.0,Calm,Calm,-,N/A,,Clear,0,2012-10-03 03:35:00
10:55 PM,55.8,47.7,74,29.91,10.0,Calm,Calm,-,N/A,,Clear,0,2012-10-03 03:55:00
11:15 PM,53.8,45.7,74,29.91,10.0,Calm,Calm,-,N/A,,Clear,0,2012-10-03 04:15:00
11:35 PM,54.0,46.8,77,29.90,7.0,Calm,Calm,-,N/A,,Clear,0,2012-10-03 04:35:00
11:55 PM,54.3,47.8,79,29.91,10.0,Calm,Calm,-,N/A,,Clear,0,2012-10-03 04:55:00